EW0395 Weather Reports


Display with metric or nautical units.
time (UTC)temp
F
wind
direction
speed
MPH
gust
MPH
rain 1hr
in
rain 24hr
in
rain mn
in
humidity
%
barometer
mb
20260831110036 50 0 0.0 0.0 0.00 0.00 0.00 98 1021.1
20260831104540 50 0 0.0 0.0 0.00 0.00 0.00 98 1021.2
20260831103043 50 0 0.0 0.0 0.00 0.00 0.00 98 1021.1
20260831101541 51 0 0.0 0.0 0.00 0.00 0.00 98 1021.1
20260831100042 51 0 0.0 0.0 0.00 0.00 0.00 98 1021.1
20260831094538 51 0 0.0 0.0 0.00 0.00 0.00 98 1021.1
20260831093040 52 0 0.0 0.0 0.00 0.00 0.00 98 1021.0
20260831091539 52 0 0.0 0.0 0.00 0.00 0.00 98 1020.9
20260831090039 52 0 0.0 0.0 0.00 0.00 0.00 97 1020.9
20260831084541 52 0 0.0 0.0 0.00 0.00 0.00 97 1020.6
20260831083042 52 0 0.0 0.0 0.00 0.00 0.00 97 1020.5
20260831081540 53 0 0.0 0.0 0.00 0.00 0.00 97 1020.4
20260831080041 53 0 0.0 0.0 0.00 0.00 0.00 97 1020.5
20260831074542 53 0 0.0 0.0 0.00 0.00 0.00 97 1020.5
20260831073042 54 0 0.0 0.0 0.00 0.00 0.00 96 1020.2
20260831071539 54 0 0.0 0.0 0.00 0.00 0.00 96 1020.0
20260831070052 55 0 0.0 0.0 0.00 0.00 0.00 96 1020.0
20260831064541 55 0 0.0 0.0 0.00 0.00 0.00 96 1020.0
20260831063042 56 0 0.0 0.0 0.00 0.00 0.00 95 1019.9
20260831061539 57 0 0.0 0.0 0.00 0.00 0.00 96 1020.0
20260831060037 58 0 0.0 0.0 0.00 0.00 0.00 95 1020.0
20260831054540 58 0 0.0 0.0 0.00 0.00 0.00 94 1020.0
20260831053039 59 0 0.0 0.0 0.00 0.00 0.00 94 1019.9
20260831051543 60 0 0.0 0.0 0.00 0.00 0.00 94 1019.9
20260831050044 60 0 0.0 0.0 0.00 0.00 0.00 95 1019.8
20260831044539 60 0 0.0 0.0 0.00 0.00 0.00 95 1019.6
20260831043041 60 0 0.0 0.0 0.00 0.00 0.00 95 1019.6
20260831041542 60 0 0.0 0.0 0.00 0.00 0.00 95 1019.4
20260831040040 60 0 0.0 0.0 0.00 0.00 0.00 95 1019.5
20260831034544 60 0 0.0 0.0 0.00 0.00 0.00 94 1019.5
20260831033059 61 0 0.0 0.0 0.00 0.00 0.00 93 1019.5
20260831031535 61 0 0.0 0.0 0.00 0.00 0.00 93 1019.6
20260831030042 62 0 0.0 0.0 0.00 0.00 0.00 93 1019.7
20260831024541 62 0 0.0 0.0 0.00 0.00 0.00 94 1019.5
20260831023036 62 0 0.0 0.0 0.00 0.00 0.00 94 1019.4
20260831021538 62 0 0.0 0.0 0.00 0.00 0.00 94 1019.2
20260831020055 62 0 0.0 0.0 0.00 0.00 0.00 93 1019.2
20260831014537 63 0 0.0 0.0 0.00 0.00 0.00 93 1019.1
20260831013036 63 0 0.0 0.0 0.00 0.00 0.00 91 1018.6
20260831011545 64 0 0.0 0.0 0.00 0.00 0.00 89 1018.7
20260831010041 65 0 0.0 0.0 0.00 0.00 0.00 88 1018.8
20260831004538 66 0 0.0 0.0 0.00 0.00 0.00 85 1018.5
20260831003041 65 0 0.0 0.0 0.00 0.00 0.00 84 1018.3
20260831001540 66 0 0.0 0.0 0.00 0.00 0.00 85 1018.0
20260831000046 66 0 0.0 0.0 0.00 0.00 0.00 84 1017.9
20260830234544 66 0 0.0 0.0 0.00 0.00 0.00 83 1017.7
20260830233045 66 0 0.0 0.0 0.00 0.00 0.00 84 1017.5
20260830231540 67 0 0.0 0.0 0.00 0.00 0.00 83 1017.4
20260830230043 67 0 0.0 0.0 0.00 0.00 0.00 84 1017.4
20260830224543 68 0 0.0 0.0 0.00 0.00 0.00 84 1017.5
20260830223042 68 0 0.0 0.0 0.00 0.00 0.00 84 1017.5
20260830221540 69 0 0.0 0.0 0.00 0.00 0.00 82 1017.5
20260830220048 70 0 0.0 0.0 0.00 0.00 0.00 80 1017.5
20260830214546 70 0 0.0 0.0 0.00 0.00 0.00 79 1017.4
20260830213042 70 0 0.0 0.0 0.00 0.00 0.00 78 1017.5
20260830211538 71 0 0.0 0.0 0.00 0.00 0.00 76 1017.4
20260830210043 71 0 0.0 0.0 0.00 0.00 0.00 76 1017.6
20260830204538 71 0 0.0 0.0 0.00 0.00 0.00 73 1017.6
20260830203041 72 0 0.0 0.0 0.00 0.00 0.00 72 1017.8
20260830201544 72 0 0.0 0.0 0.00 0.00 0.00 69 1017.8
20260830200040 73 0 0.0 0.0 0.00 0.00 0.00 67 1018.0
20260830194539 73 0 0.0 0.0 0.00 0.00 0.00 67 1018.1
20260830193036 73 0 0.0 0.0 0.00 0.00 0.00 67 1018.4
20260830191544 72 0 0.0 0.0 0.00 0.00 0.00 70 1018.5
20260830190049 72 0 0.0 0.0 0.00 0.00 0.00 68 1018.7
20260830184542 71 0 0.0 0.0 0.00 0.00 0.00 68 1018.9
20260830183041 71 0 0.0 0.0 0.00 0.00 0.00 72 1019.2
20260830181540 71 0 0.0 0.0 0.00 0.00 0.00 73 1019.3
20260830180044 71 0 0.0 0.0 0.00 0.00 0.00 70 1019.6
20260830174539 71 0 0.0 0.0 0.00 0.00 0.00 72 1019.7
20260830173045 70 0 0.0 0.0 0.00 0.00 0.00 70 1019.8
20260830171548 70 0 0.0 0.0 0.00 0.00 0.00 73 1019.8
20260830170044 70 0 0.0 0.0 0.00 0.00 0.00 74 1019.9
20260830164541 70 0 0.0 0.0 0.00 0.00 0.00 72 1020.3
20260830163041 71 0 0.0 0.0 0.00 0.00 0.00 70 1020.2
20260830161537 72 0 0.0 0.0 0.00 0.00 0.00 70 1020.5
20260830160041 71 0 0.0 0.0 0.00 0.00 0.00 72 1020.9
20260830154542 68 0 0.0 0.0 0.00 0.00 0.00 77 1020.5
20260830153042 68 0 0.0 0.0 0.00 0.00 0.00 77 1020.3
20260830151559 68 0 0.0 0.0 0.00 0.00 0.00 77 1020.9
20260830150041 69 0 0.0 0.0 0.00 0.00 0.00 75 1020.7
20260830144550 69 0 0.0 0.0 0.00 0.00 0.00 75 1020.9
20260830143040 70 0 0.0 0.0 0.00 0.00 0.00 72 1020.9
20260830141538 70 0 0.0 0.0 0.00 0.00 0.00 71 1021.0
20260830140041 70 0 0.0 0.0 0.00 0.00 0.00 73 1020.8
20260830134544 67 0 0.0 0.0 0.00 0.00 0.00 80 1020.8
20260830133040 66 0 0.0 0.0 0.00 0.00 0.00 79 1020.9
20260830131554 65 0 0.0 0.0 0.00 0.00 0.00 81 1021.1
20260830130040 63 0 0.0 0.0 0.00 0.00 0.00 82 1021.1
20260830124542 63 0 0.0 0.0 0.00 0.00 0.00 82 1021.1
20260830123042 63 0 0.0 0.0 0.00 0.00 0.00 82 1021.1
20260830121539 61 0 0.0 0.0 0.00 0.00 0.00 85 1021.3
20260830120043 59 0 0.0 0.0 0.00 0.00 0.00 86 1021.3
20260830114546 58 0 0.0 0.0 0.00 0.00 0.00 88 1021.2
20260830113038 56 0 0.0 0.0 0.00 0.00 0.00 90 1021.7
20260830111539 55 0 0.0 0.0 0.00 0.00 0.00 90 1021.7